User: anonymous
Location: Mactaquac Provincial Park
(45.9573°N, 66.8897°W)
Time: 05:25:47
(UTC-03:00)
Language:

Cosmos 1867 - Orbit

View from above orbital plane
View from above orbital plane
View from above satellite
View from above satellite

Ground track
Ground track

The orbit data is extracted from the following two-line orbital elements,

1 18187U 87060A   14204.87486370 -.00000043  00000-0  21717-4 0  1059
2 18187 065.0126 313.2811 0015353 260.7888 099.1460 14.31022178412412
Epoch (UTC): 23 July 2014 20:59:48
Eccentricity: 0.0015353
inclination: 65.0126°
perigee height: 777 km
apogee height: 799 km
right ascension of ascending node: 313.2811°
argument of perigee: 260.7888°
revolutions per day: 14.31022178
mean anomaly at epoch: 99.1460°
orbit number at epoch: 41241

The dashed part of the orbit path shows where the satellite is in the earth's shadow,  

DLR